sat.trackr.live / text

‹ back to catalog

STARLINK-30846

NORAD 58210 · 2023-170E

PAYLOAD ACTIVE UNKNOWN

§ Identity

Operator
Country
US
Launch date
2023-11-03
Launch site
AFETR
Launch vehicle
Mass (kg)
RCS (m²)

Purposes: comms

External: N2YO · Heavens-Above · Gunter

§ Orbital elements

Epoch: 2026-05-24T22:17:09.508992Z

Period
94.27 min
Inclination
43.0031°
Eccentricity
0.0001148
Mean motion
15.27582822 rev/d
Perigee alt
482.3 km
Apogee alt
483.8 km
Semi-major
6,861.2 km
B*
3.8439e-5
RAAN
124.1460°
Arg perigee
280.9497°
Mean anomaly
79.1226°
Rev number
14,195

§ Raw data

STARLINK-308461 58210U 23170E   26144.92858228  .00000796  00000+0  38439-4 0  99922 58210  43.0031 124.1460 0001148 280.9497  79.1226 15.27582822141959

JSON: /api/v1/satellites/58210 · /tle

For live sub-satellite position, see the globe view (requires WebGL).

§ Visibility from observer

Set your observer location to see the next 7 days of passes ≥ 10°. The values pass through the URL so the page stays shareable.

No JS? Fill the form by hand. The geolocation button needs JavaScript.